Hourly Data Report for April 07, 2017

All times are specified in Local Standard Time (LST). Add 1 hour to adjust for Daylight Saving Time where and when it is observed.

TORONTO CITY
ONTARIO

43°40'00.000" N
79°24'00.000" W
112.50 m
6158355
71508
XTO

Download Data

Hourly Data (April 2017)
Hourly Data Report for April 7, 2017
TIME Temp Definition
°C
Dew Point Definition
°C
Rel Hum Definition
%
Wind Dir Definition
10's deg

Wind Spd Definition
km/h
Visibility Definition
km
Stn Press Definition
kPa
Hmdx Definition


Wind Chill Definition


Weather Definition


00:00 1.5 0.2 91 LegendMM LegendMM   98.07     LegendNANA
01:00 1.6 0.1 90 LegendMM LegendMM   98.09     LegendNANA
02:00 1.5 -0.3 88 LegendMM LegendMM   98.08     LegendNANA
03:00 1.3 -0.8 86 LegendMM LegendMM   98.12     LegendNANA
04:00 0.9 -1.2 86 LegendMM LegendMM   98.21     LegendNANA
05:00 0.6 -1.1 88 LegendMM LegendMM   98.31     LegendNANA
06:00 0.6 -1.6 85 LegendMM LegendMM   98.43     LegendNANA
07:00 0.3 -1.2 89 LegendMM LegendMM   98.56     LegendNANA
08:00 0.2 -1.2 90 LegendMM LegendMM   98.67     LegendNANA
09:00 0.7 -2.3 81 LegendMM LegendMM   98.78     LegendNANA
10:00 0.4 -3.3 76 LegendMM LegendMM   98.84     LegendNANA
11:00 1.0 -3.7 71 LegendMM LegendMM   98.91     LegendNANA
12:00 2.4 -3.0 68 LegendMM LegendMM   99.00     LegendNANA
13:00 3.1 -3.8 61 LegendMM LegendMM   99.04     LegendNANA
14:00 3.5 -4.2 57 LegendMM LegendMM   99.13     LegendNANA
15:00 4.3 -4.7 52 LegendMM LegendMM   99.13     LegendNANA
16:00 4.4 -5.3 49 LegendMM LegendMM   99.19     LegendNANA
17:00 4.8 -7.0 42 LegendMM LegendMM   99.32     LegendNANA
18:00 5.1 -9.8 33 LegendMM LegendMM   99.37     LegendNANA
19:00 4.9 -9.8 34 LegendMM LegendMM   99.43     LegendNANA
20:00 4.3 -8.4 39 LegendMM LegendMM   99.50     LegendNANA
21:00 3.9 -8.0 42 LegendMM LegendMM   99.58     LegendNANA
22:00 3.6 -5.5 51 LegendMM LegendMM   99.63     LegendNANA
23:00 3.0 -4.7 57 LegendMM LegendMM   99.67     LegendNANA

Notes on Data Quality.

Legend

  • E = Estimated
  • M = Missing
  • NA = Not Available
Date modified: